HS5XCL-1 Weather Reports


time (UTC)temp
F
wind
direction
speed
knots
gust
knots
rain 1hr
in
rain 24hr
in
rain mn
in
humidity
%
barometer
mb
20260504205434 89 0 0.0 0.0 0.00 0.00 0.00 100 967.0
20260504204424 89 0 0.0 0.0 0.00 0.00 0.00 100 967.0
20260504203414 89 0 0.0 0.0 0.00 0.00 0.00 100 967.0
20260504202404 89 0 0.0 0.0 0.00 0.00 0.00 100 967.0
20260504201353 89 0 0.0 0.0 0.00 0.00 0.00 100 967.0
20260504200343 90 0 0.0 0.0 0.00 0.00 0.00 100 967.0
20260504195555 89 0 0.0 0.0 0.00 0.00 0.00 100 967.0
20260504194545 89 0 0.0 0.0 0.00 0.00 0.00 100 967.0
20260504193535 89 0 0.0 0.0 0.00 0.00 0.00 100 967.0
20260504192524 89 0 0.0 0.0 0.00 0.00 0.00 100 967.0
20260504191514 90 0 0.0 0.0 0.00 0.00 0.00 100 967.0
20260504190504 90 0 0.0 0.0 0.00 0.00 0.00 100 967.0
20260504185454 90 0 0.0 0.0 0.00 0.00 0.00 100 967.0
20260504184444 89 0 0.0 0.0 0.00 0.00 0.00 100 967.0
20260504183434 90 0 0.0 0.0 0.00 0.00 0.00 100 967.0
20260504182424 90 0 0.0 0.0 0.00 0.00 0.00 100 967.0
20260504181414 90 0 0.0 0.0 0.00 0.00 0.00 100 967.0
20260504180404 90 0 0.0 0.0 0.00 0.00 0.00 100 967.0
20260504175354 90 0 0.0 0.0 0.00 0.00 0.00 100 967.0
20260504174344 89 0 0.0 0.0 0.00 0.00 0.00 100 967.0
20260504173334 89 0 0.0 0.0 0.00 0.00 0.00 100 967.0
20260504172324 88 0 0.0 0.0 0.00 0.00 0.00 100 967.0
20260504171314 90 0 0.0 0.0 0.00 0.00 0.00 100 967.0
20260504170305 90 0 0.0 0.0 0.00 0.00 0.00 100 967.0
20260504160205 92 0 0.0 0.0 0.00 0.00 0.00 100 967.0
20260504151115 97 0 0.0 0.0 0.00 0.00 0.00 100 965.0
20260504150105 98 0 0.0 0.0 0.00 0.00 0.00 100 965.0
20260504141016 101 0 0.0 0.0 0.00 0.00 0.00 100 964.0
20260504110713 108 0 0.0 0.0 0.00 0.00 0.00 100 961.0
20260504100613 108 0 0.0 0.0 0.00 0.00 0.00 100 961.0
20260504081423 110 0 0.0 0.0 0.00 0.00 0.00 100 962.0
20260504080413 110 0 0.0 0.0 0.00 0.00 0.00 100 962.0
20260504070312 108 0 0.0 0.0 0.00 0.00 0.00 100 964.0
20260504060212 105 0 0.0 0.0 0.00 0.00 0.00 100 965.0
20260504050112 102 0 0.0 0.0 0.00 0.00 0.00 100 966.0
20260504045102 102 0 0.0 0.0 0.00 0.00 0.00 100 966.0
20260504044052 102 0 0.0 0.0 0.00 0.00 0.00 100 966.0
20260504043042 102 0 0.0 0.0 0.00 0.00 0.00 100 966.0
20260504042032 103 0 0.0 0.0 0.00 0.00 0.00 100 966.0
20260504041022 101 0 0.0 0.0 0.00 0.00 0.00 100 966.0
20260504040012 100 0 0.0 0.0 0.00 0.00 0.00 100 966.0
20260504035002 99 0 0.0 0.0 0.00 0.00 0.00 100 967.0
20260504033952 97 0 0.0 0.0 0.00 0.00 0.00 100 967.0
20260504032942 98 0 0.0 0.0 0.00 0.00 0.00 100 967.0
20260504031932 97 0 0.0 0.0 0.00 0.00 0.00 100 967.0
20260504030922 97 0 0.0 0.0 0.00 0.00 0.00 100 967.0
20260504025912 96 0 0.0 0.0 0.00 0.00 0.00 100 967.0
20260504024902 95 0 0.0 0.0 0.00 0.00 0.00 100 967.0
20260504023852 95 0 0.0 0.0 0.00 0.00 0.00 100 967.0
20260504022842 94 0 0.0 0.0 0.00 0.00 0.00 100 967.0
20260504021832 94 0 0.0 0.0 0.00 0.00 0.00 100 967.0
20260504020822 93 0 0.0 0.0 0.00 0.00 0.00 100 967.0
20260504015812 93 0 0.0 0.0 0.00 0.00 0.00 100 967.0
20260504014802 92 0 0.0 0.0 0.00 0.00 0.00 100 967.0
20260504013753 92 0 0.0 0.0 0.00 0.00 0.00 100 967.0
20260504012742 92 0 0.0 0.0 0.00 0.00 0.00 100 967.0
20260504011731 92 0 0.0 0.0 0.00 0.00 0.00 100 967.0
20260504010721 92 0 0.0 0.0 0.00 0.00 0.00 100 966.0
20260504005711 91 0 0.0 0.0 0.00 0.00 0.00 100 966.0
20260504004702 91 0 0.0 0.0 0.00 0.00 0.00 100 966.0
20260504003651 91 0 0.0 0.0 0.00 0.00 0.00 100 966.0
20260504002641 91 0 0.0 0.0 0.00 0.00 0.00 100 966.0
20260504001631 90 0 0.0 0.0 0.00 0.00 0.00 100 966.0
20260504000621 90 0 0.0 0.0 0.00 0.00 0.00 100 966.0
20260503235611 90 0 0.0 0.0 0.00 0.00 0.00 100 966.0
20260503234601 89 0 0.0 0.0 0.00 0.00 0.00 100 966.0
20260503233551 89 0 0.0 0.0 0.00 0.00 0.00 100 966.0
20260503232541 90 0 0.0 0.0 0.00 0.00 0.00 100 966.0
20260503231531 89 0 0.0 0.0 0.00 0.00 0.00 100 966.0
20260503230521 89 0 0.0 0.0 0.00 0.00 0.00 100 966.0
20260503225511 89 0 0.0 0.0 0.00 0.00 0.00 100 965.0
20260503224501 89 0 0.0 0.0 0.00 0.00 0.00 100 965.0
20260503223451 89 0 0.0 0.0 0.00 0.00 0.00 100 965.0
20260503222441 89 0 0.0 0.0 0.00 0.00 0.00 100 965.0
20260503221431 90 0 0.0 0.0 0.00 0.00 0.00 100 965.0
20260503220421 90 0 0.0 0.0 0.00 0.00 0.00 100 965.0
20260503215411 90 0 0.0 0.0 0.00 0.00 0.00 100 965.0
20260503214401 89 0 0.0 0.0 0.00 0.00 0.00 100 965.0
20260503213351 90 0 0.0 0.0 0.00 0.00 0.00 100 964.0
20260503212341 90 0 0.0 0.0 0.00 0.00 0.00 100 964.0
20260503211331 90 0 0.0 0.0 0.00 0.00 0.00 100 964.0
20260503210322 90 0 0.0 0.0 0.00 0.00 0.00 100 964.0